When you browse on this site, cookies collect data to enhance your experience and personalize the content and advertising you see.
Visit our Privacy Policy to learn more. By continuing to use the site, you agree to this use of cookies and data.

Hourly Weather Lota

Today, 18 September, Friday

Time Temperature Precipitation Wind Pressure Humidity
00:00 +8°C° 0 mm 3 mps 765 mmHg 94%
01:00 +7°C° 0 mm 3 mps 765 mmHg 95%
02:00 +7°C° 0 mm 3 mps 765 mmHg 95%
03:00 +5°C° 0 mm 3 mps 765 mmHg 95%
04:00 +5°C° 0 mm 3 mps 765 mmHg 95%
05:00 +5°C° 0 mm 3 mps 765 mmHg 91%
06:00 +7°C° 0 mm 3 mps 765 mmHg 88%
07:00 +8°C° 0 mm 3 mps 765 mmHg 83%
08:00 +10°C° 0 mm 3 mps 766 mmHg 71%
09:00 +13°C° 0 mm 3 mps 766 mmHg 60%
10:00 +16°C° 0 mm 3 mps 766 mmHg 48%
11:00 +17°C° 0 mm 4 mps 766 mmHg 47%
12:00 +17°C° 0 mm 5 mps 765 mmHg 45%
13:00 +17°C° 0 mm 5 mps 765 mmHg 44%
14:00 +16°C° 0 mm 5 mps 765 mmHg 47%
15:00 +16°C° 0 mm 6 mps 765 mmHg 50%
16:00 +15°C° 0 mm 6 mps 765 mmHg 53%
17:00 +13°C° 0 mm 5 mps 766 mmHg 60%
18:00 +10°C° 0 mm 5 mps 766 mmHg 67%
19:00 +8°C° 0 mm 5 mps 766 mmHg 74%
20:00 +7°C° 0 mm 5 mps 766 mmHg 74%
21:00 +7°C° 0 mm 4 mps 766 mmHg 75%
22:00 +6°C° 0 mm 4 mps 766 mmHg 76%
23:00 +6°C° 0 mm 4 mps 766 mmHg 74%

Tomorrow, 19 September, Saturday

Time Temperature Precipitation Wind Pressure Humidity
00:00 +5°C° 0 mm 4 mps 765 mmHg 72%
01:00 +5°C° 0 mm 4 mps 765 mmHg 71%
02:00 +5°C° 0 mm 4 mps 764 mmHg 68%
03:00 +5°C° 0 mm 3 mps 764 mmHg 66%
04:00 +4°C° 0 mm 3 mps 764 mmHg 63%
05:00 +5°C° 0 mm 3 mps 764 mmHg 60%
06:00 +7°C° 0 mm 3 mps 764 mmHg 57%
07:00 +8°C° 0 mm 3 mps 764 mmHg 53%
08:00 +12°C° 0 mm 3 mps 763 mmHg 45%
09:00 +16°C° 0 mm 3 mps 763 mmHg 37%
10:00 +20°C° 0 mm 3 mps 763 mmHg 28%
11:00 +21°C° 0 mm 4 mps 762 mmHg 25%
12:00 +23°C° 0 mm 4 mps 762 mmHg 22%
13:00 +26°C° 0 mm 5 mps 761 mmHg 19%
14:00 +25°C° 0 mm 5 mps 761 mmHg 22%
15:00 +23°C° 0 mm 5 mps 760 mmHg 24%
16:00 +22°C° 0 mm 5 mps 760 mmHg 27%
17:00 +19°C° 0 mm 4 mps 760 mmHg 32%
18:00 +15°C° 0 mm 4 mps 760 mmHg 37%
19:00 +12°C° 0 mm 3 mps 760 mmHg 42%
20:00 +11°C° 0 mm 3 mps 760 mmHg 43%
21:00 +10°C° 0 mm 2 mps 760 mmHg 45%
22:00 +10°C° 0 mm 2 mps 760 mmHg 46%
23:00 +10°C° 0 mm 1 mps 760 mmHg 49%

Day after tomorrow, 20 September, Sunday

Time Temperature Precipitation Wind Pressure Humidity
00:00 +9°C° 0 mm 1 mps 760 mmHg 53%
01:00 +9°C° 0 mm 1 mps 759 mmHg 57%
02:00 +9°C° 0 mm 1 mps 759 mmHg 57%
03:00 +8°C° 0 mm 1 mps 759 mmHg 58%
04:00 +8°C° 0 mm 1 mps 759 mmHg 59%
05:00 +9°C° 0 mm 1 mps 759 mmHg 58%
06:00 +9°C° 0 mm 1 mps 759 mmHg 57%
07:00 +10°C° 0 mm 1 mps 759 mmHg 57%
08:00 +14°C° 0 mm 1 mps 759 mmHg 49%
09:00 +18°C° 0 mm 1 mps 759 mmHg 42%
10:00 +22°C° 0 mm 1 mps 759 mmHg 35%
11:00 +23°C° 0 mm 1 mps 759 mmHg 33%
12:00 +24°C° 0 mm 2 mps 759 mmHg 32%
13:00 +26°C° 0 mm 2 mps 759 mmHg 30%
14:00 +24°C° 0 mm 2 mps 759 mmHg 35%
15:00 +23°C° 0 mm 2 mps 759 mmHg 40%
16:00 +21°C° 0 mm 2 mps 759 mmHg 46%
17:00 +18°C° 0 mm 2 mps 759 mmHg 55%
18:00 +15°C° 0 mm 2 mps 760 mmHg 64%
19:00 +12°C° 0 mm 1 mps 760 mmHg 73%
20:00 +11°C° 0 mm 1 mps 760 mmHg 75%
21:00 +11°C° 0 mm 1 mps 760 mmHg 76%
22:00 +10°C° 0 mm 1 mps 760 mmHg 77%
23:00 +10°C° 0 mm 1 mps 760 mmHg 78%

21 September, Monday

Time Temperature Precipitation Wind Pressure Humidity
00:00 +10°C° 0 mm 1 mps 760 mmHg 78%
01:00 +10°C° 0 mm 1 mps 761 mmHg 79%
02:00 +10°C° 0 mm 1 mps 760 mmHg 82%
03:00 +10°C° 0 mm 1 mps 760 mmHg 84%
04:00 +10°C° 0 mm 1 mps 760 mmHg 87%
05:00 +10°C° 0 mm 1 mps 760 mmHg 85%
06:00 +11°C° 0 mm 1 mps 760 mmHg 83%
07:00 +12°C° 0 mm 1 mps 760 mmHg 81%
08:00 +15°C° 0 mm 1 mps 760 mmHg 70%
09:00 +18°C° 0 mm 2 mps 760 mmHg 59%
10:00 +21°C° 0 mm 2 mps 760 mmHg 48%
11:00 +21°C° 0 mm 2 mps 760 mmHg 46%
12:00 +21°C° 0 mm 3 mps 760 mmHg 43%
13:00 +22°C° 0 mm 4 mps 760 mmHg 41%
14:00 +21°C° 0 mm 4 mps 760 mmHg 45%
15:00 +20°C° 0 mm 4 mps 760 mmHg 48%
16:00 +18°C° 0 mm 4 mps 759 mmHg 52%
17:00 +15°C° 0 mm 4 mps 760 mmHg 62%
18:00 +12°C° 0 mm 4 mps 760 mmHg 72%
19:00 +8°C° 0 mm 4 mps 761 mmHg 83%
20:00 +8°C° 0 mm 4 mps 761 mmHg 82%
21:00 +8°C° 0 mm 3 mps 761 mmHg 82%
22:00 +8°C° 0 mm 3 mps 761 mmHg 82%
23:00 +8°C° 0 mm 3 mps 761 mmHg 82%

22 September, Tuesday

Time Temperature Precipitation Wind Pressure Humidity
00:00 +7°C° 0 mm 3 mps 762 mmHg 83%
01:00 +7°C° 0 mm 3 mps 762 mmHg 83%
02:00 +7°C° 0 mm 3 mps 762 mmHg 84%
03:00 +6°C° 0 mm 2 mps 762 mmHg 84%
04:00 +6°C° 0 mm 2 mps 762 mmHg 84%
05:00 +7°C° 0 mm 2 mps 762 mmHg 82%
06:00 +8°C° 0 mm 2 mps 763 mmHg 79%
07:00 +8°C° 0 mm 2 mps 763 mmHg 77%
08:00 +12°C° 0 mm 2 mps 763 mmHg 67%
09:00 +15°C° 0 mm 2 mps 763 mmHg 57%
10:00 +18°C° 0 mm 2 mps 763 mmHg 48%
11:00 +19°C° 0 mm 3 mps 763 mmHg 45%
12:00 +19°C° 0 mm 3 mps 763 mmHg 43%
13:00 +20°C° 0 mm 4 mps 763 mmHg 41%
14:00 +19°C° 0 mm 4 mps 763 mmHg 45%
15:00 +18°C° 0 mm 4 mps 763 mmHg 48%
16:00 +17°C° 0 mm 5 mps 763 mmHg 52%
17:00 +14°C° 0 mm 4 mps 763 mmHg 63%
18:00 +12°C° 0 mm 4 mps 764 mmHg 73%
19:00 +8°C° 0 mm 4 mps 764 mmHg 83%
20:00 +9°C° 0 mm 3 mps 764 mmHg 85%
21:00 +8°C° 0 mm 3 mps 765 mmHg 87%
22:00 +7°C° 0 mm 3 mps 765 mmHg 89%
23:00 +7°C° 0 mm 3 mps 765 mmHg 89%

23 September, Wednesday

Time Temperature Precipitation Wind Pressure Humidity
00:00 +5°C° 0 mm 3 mps 765 mmHg 89%
01:00 +6°C° 0 mm 2 mps 764 mmHg 89%
02:00 +6°C° 0 mm 2 mps 764 mmHg 88%
03:00 +5°C° 0 mm 2 mps 764 mmHg 88%
04:00 +5°C° 0 mm 2 mps 764 mmHg 87%
05:00 +6°C° 0 mm 2 mps 764 mmHg 81%
06:00 +7°C° 0 mm 2 mps 764 mmHg 76%
07:00 +8°C° 0 mm 2 mps 764 mmHg 70%
08:00 +12°C° 0 mm 2 mps 764 mmHg 60%
09:00 +16°C° 0 mm 2 mps 764 mmHg 49%
10:00 +19°C° 0 mm 2 mps 764 mmHg 38%
11:00 +20°C° 0 mm 2 mps 764 mmHg 36%
12:00 +21°C° 0 mm 2 mps 763 mmHg 34%
13:00 +22°C° 0 mm 3 mps 763 mmHg 32%
14:00 +21°C° 0 mm 3 mps 763 mmHg 37%
15:00 +20°C° 0 mm 4 mps 763 mmHg 42%
16:00 +19°C° 0 mm 4 mps 763 mmHg 48%
17:00 +15°C° 0 mm 4 mps 763 mmHg 59%
18:00 +12°C° 0 mm 4 mps 763 mmHg 69%
19:00 +8°C° 0 mm 4 mps 763 mmHg 80%
20:00 +9°C° 0 mm 3 mps 763 mmHg 82%
21:00 +8°C° 0 mm 3 mps 763 mmHg 84%
22:00 +7°C° 0 mm 3 mps 763 mmHg 86%
23:00 +7°C° 0 mm 2 mps 763 mmHg 86%
Show more